Location: Dobrzeń Wielki
(50.7693°N, 17.8414°E)
Time: 20:38:47
(UTC+02:00)

OTV 5 (USA 277) - Visible Passes

Search period start: 23 October 2019 00:00
Search period end: 01 November 2019 23:00
Orbit: 310 x 324 km, 54.5° (Epoch: 17 October)

Date Brightness Start Highest point End Pass type
(mag) Time Alt. Az. Time Alt. Az. Time Alt. Az.
29 Oct ? 18:21:24 10° SSW 18:22:16 16° S 18:22:16 16° S visible
30 Oct ? 18:35:26 10° SW 18:36:39 22° SW 18:36:39 22° SW visible
31 Oct ? 17:16:47 10° S 17:18:37 16° SE 17:20:03 12° ESE visible
31 Oct ? 18:49:52 10° WSW 18:50:56 21° WSW 18:50:56 21° WSW visible
01 Nov ? 17:30:27 10° SSW 17:32:58 33° SE 17:34:15 21° E visible
01 Nov ? 19:04:32 10° W 19:05:08 15° W 19:05:08 15° W visible
